Regional Weather Roundup
Issued by NWS Little Rock, AR

Home | Current Version | Previous Version | Text Only | Print | Product List | Glossary Off
Versions: 1 2 3 4 5 6 7 8 9 10 11 12 13 14 15 16 17 18 19 20 21 22 23 24 25 26 27 28 29 30 31 32 33 34 35 36 37 38 39 40 41 42 43 44 45 46 47 48

000
ASUS44 KLZK 041405
RWRLZK

WEATHER ROUNDUP FOR ARKANSAS
NATIONAL WEATHER SERVICE LITTLE ROCK AR
900 AM CDT MON MAY 04 2015

NOTE: "FAIR" INDICATES FEW OR NO CLOUDS BELOW 12,000 FEET WITH NO
SIGNIFICANT WEATHER AND/OR OBSTRUCTIONS TO VISIBILITY.

ARZ001-003-010-029-041500-
NORTHWEST ARKANSAS

CITY           SKY/WX    TMP DP  RH WIND       PRES   REMARKS
FAYETTEVILLE   PTSUNNY   68  57  68 S13       30.13R
FORT SMITH     PTSUNNY   67  58  72 NE6       30.12R
HARRISON       MOSUNNY   68  59  73 SE9       30.14R
BENTONVILLE    PTSUNNY   66  54  63 S7        30.13R
ROGERS         PTSUNNY   71  55  56 S15G23    30.13R
SILOAM SPGS    PTSUNNY   66  54  63 S9        30.13R
HIGHFILL       PTSUNNY   66  56  70 S9        30.12R
SPRINGDALE     PTSUNNY   70  55  60 S14       30.14R
$$

ARZ004-005-016-041500-
NORTH CENTRAL ARKANSAS

CITY           SKY/WX    TMP DP  RH WIND       PRES   REMARKS
BATESVILLE     SUNNY     70  59  68 S5        30.16S
FLIPPIN        MOSUNNY   70  59  68 S5        30.12S
MTN HOME       MOSUNNY   69  58  67 S7        30.13S
$$

ARZ040-041-041500-
WEST CENTRAL ARKANSAS

CITY           SKY/WX    TMP DP  RH WIND       PRES   REMARKS
MENA           SUNNY     72  63  73 SW7       30.16S
MOUNT IDA      SUNNY     72  60  66 CALM      30.14R
$$

ARZ009-017-025-026-028-041500-
NORTHEAST ARKANSAS

CITY           SKY/WX    TMP DP  RH WIND       PRES   REMARKS
CORNING          N/A     73  59  60 S10       30.17R
JONESBORO      SUNNY     70  60  70 S7        30.17S
NEWPORT        SUNNY     72  60  65 S9        30.18S
WALNUT RIDGE   MOSUNNY   72  57  60 S9        30.16S
BLYTHEVILLE    SUNNY     74  59  59 SW10      30.19S
NW BLYTHEVILLE SUNNY     73  59  60 W12       30.19R
$$

ARZ022-023-033-042-044-041500-
CENTRAL ARKANSAS

CITY           SKY/WX    TMP DP  RH WIND       PRES   REMARKS
LITTLE ROCK    MOSUNNY   71  58  63 VRB5      30.18R
N LITTLE ROCK  MOSUNNY   69  62  79 S6        30.18R
JACKSONVILLE   SUNNY     70  60  70 SE6       30.17R
SEARCY         SUNNY     69  61  75 S6        30.19R
HOT SPRINGS    SUNNY     69  59  70 SE3       30.18R
RUSSELLVILLE   CLOUDY    68  60  75 CALM      30.15R
CLINTON        FAIR      64  59  82 CALM      30.18S HAZE
$$

ARZ036-041500-
EAST ARKANSAS

CITY           SKY/WX    TMP DP  RH WIND       PRES   REMARKS
WEST MEMPHIS   MOSUNNY   71  60  68 S12       30.19R
$$

ARZ050-053-066-070-073-041500-
SOUTHWEST ARKANSAS

CITY           SKY/WX    TMP DP  RH WIND       PRES   REMARKS
ARKADELPHIA    FAIR      66  63  90 CALM      30.19R
CAMDEN         MOSUNNY   68  57  68 CALM      30.19R HAZE
TEXARKANA      SUNNY     70  60  70 SW9       30.17R
EL DORADO      SUNNY     67  59  75 S3        30.19R
DE QUEEN       PTSUNNY   67  60  78 E8        30.14R
$$

ARZ056-057-069-041500-
SOUTHEAST ARKANSAS

CITY           SKY/WX    TMP DP  RH WIND       PRES   REMARKS
PINE BLUFF     SUNNY     70  59  68 SW7       30.19R
STUTTGART      SUNNY     72  59  64 S8        30.19S
MONTICELLO     CLOUDY    66  59  78 S3        30.20R

$$




USA.gov is the U.S. government's official web portal to all federal, state and local government web resources and services.